CAPE
0 0 0 0 0 0 0 0 0 0 0 0 0 0 0 0 0 0 0 0 0 0 0 0 0 0 0 0 0 0 0 0 0 0 0 0 0 0 0 0 0 0 0 0
0 0 0 0 0 0 0 0 0 0 0 0 0 0 0 0 0 0 0 0 0 0 0 0 0 0 0 0 0 0 0 0 0 0 0 0 0 0 0 0 0 0 0 0
0 0 0 0 0 0 0 0 0 0 0 0 0 0 0 0 0 0 0 0 0 0 0 0 0 0 0 0 0 0 0 0 0 0 0 0 0 0 0 0 0 0 0 0
0 0 0 0 0 0 0 0 0 0 0 0 0 0 0 0 0 0 0 0 0 0 0 0 0 0 0 0 0 0 0 0 0 0 0 0 0 0 0 0 0 0 0 0
0 0 0 0 0 0 0 0 0 0 0 0 0 0 0 0 0 0 0 0 0 0 0 0 0 0 0 0 0 0 0 0 0 0 0 0 0 0 0 0 0 0 0 0
0 0 0 0 0 0 0 0 0 0 0 0 0 0 0 0 0 0 0 0 0 0 0 0 0 0 0 0 0 0 0 0 0 0 0 0 0 0 0 0 0 0 0 0
0 0 0 0 0 0 0 0 0 0 0 0 0 0 0 0 0 0 0 0 0 0 0 0 0 0 0 0 0 0 0 0 0 0 0 0 0 0 0 0 0 0 0 0
0 0 0 0 0 0 0 0 0 0 0 0 0 0 0 0 0 0 0 0 0 0 0 0 0 0 0 0 0 0 0 0 0 0 0 0 0 0 0 0 0 0 0 0
0 0 0 0 0 0 0 0 0 0 0 0 0 0 0 0 0 0 0 0 0 0 0 0 0 0 0 0 0 0 0 0 0 0 0 0 0 0 0 0 0 0 0 0
0 0 0 0 0 0 0 0 0 0 0 0 0 0 0 0 0 0 0 0 0 0 0 0 0 0 0 0 0 0 0 0 0 0 0 0 0 0 0 0 0 0 0 0
0 0 0 0 0 0 0 0 0 0 0 0 0 0 0 0 0 0 0 0 0 0 0 0 0 0 0 0 0 0 0 0 0 0 0 0 0 0 0 0 0 0 0 0
0 0 0 0 0 0 0 0 0 0 0 0 0 0 0 0 0 0 0 0 0 0 0 0 0 0 0 0 0 0 0 0 0 0 0 0 0 0 0 0 0 0 0 0
0 0 0 0 0 0 0 0 0 0 0 0 0 0 0 0 0 0 0 0 0 0 0 0 0 0 0 0 0 0 0 0 0 0 0 0 0 0 0 0 0 0 0 0
0 0 0 0 0 0 0 0 0 0 0 0 0 0 0 0 0 0 0 0 0 0 0 0 0 0 0 0 0 0 0 0 0 0 0 0 0 0 0 0 0 0 0 0
0 0 0 0 0 0 0 0 0 0 0 0 0 0 0 0 0 0 0 0 0 0 0 0 0 0 0 0 0 0 0 0 0 0 0 0 2 1 1 1 0 0 0 0
0 0 0 0 0 0 0 0 0 0 0 0 0 0 0 0 0 0 0 0 0 0 0 0 0 0 0 0 0 0 0 0 0 0 0 0 0 0 0 0 0 0 0 0
0 0 0 0 0 0 0 0 0 0 0 0 0 0 0 0 0 0 0 0 0 0 0 0 0 0 0 0 0 0 0 0 0 0 0 0 0 0 0 0 0 0 0 0
0 0 0 0 0 0 0 0 0 0 0 0 0 0 0 0 0 0 0 0 0 0 0 0 0 0 0 0 0 0 0 0 0 0 0 0 0 0 0 0 0 0 0 0
0 0 0 0 0 0 0 0 0 0 0 0 0 0 0 0 0 0 0 0 0 0 0 0 0 0 0 0 0 0 0 0 0 0 0 0 0 0 0 0 0 0 0 0
0 0 0 0 0 0 0 0 0 0 0 0 0 0 0 1 0 3 0 0 0 0 0 0 0 0 0 0 0 0 0 0 0 0 0 0 0 0 0 0 0 0 0 0
0 0 0 0 0 0 0 0 0 1 1 0 0 0 0 0 1 0 0 0 0 0 0 0 0 0 0 0 0 0 0 0 0 0 0 0 0 0 0 0 0 0 0 0
0 0 0 0 0 0 0 0 0 2 0 0 0 0 0 0 0 0 0 0 0 0 0 0 0 0 0 0 0 0 0 0 0 0 0 0 0 0 0 0 0 0 0 0
0 0 0 0 0 0 0 0 0 0 0 0 0 0 0 0 0 0 0 0 0 0 0 0 0 0 0 0 0 0 0 0 0 0 0 0 0 0 0 0 0 0 0 0
0 0 0 0 0 0 0 0 0 0 0 0 0 0 0 0 0 0 0 0 0 0 0 0 0 0 0 0 0 0 0 0 0 0 0 0 0 0 0 0 0 0 0 2
0 0 0 0 0 0 0 1 0 0 0 0 0 0 0 0 0 0 0 0 0 0 0 0 0 0 0 0 0 0 0 0 0 0 0 0 0 0 0 0 0 0 2 0
0 0 0 0 7 18 22 0 0 0 0 0 0 0 0 0 0 0 0 0 0 0 0 0 0 0 0 0 0 0 0 0 0 0 0 0 0 0 0 0 0 0 0 0
CIN
0 0 0 0 0 0 0 0 0 0 0 0 0 0 0 0 0 0 0 0 0 0 0 0 0 0 0 0 0 0 0 0 0 0 0 0 0 0 0 0 0 0 0 0
0 0 0 0 0 0 0 0 0 0 0 0 0 0 0 0 0 0 0 0 0 0 0 0 0 0 0 0 0 0 0 0 0 0 0 0 0 0 0 0 0 0 0 0
0 0 0 0 0 0 0 0 0 0 0 0 0 0 0 0 0 0 0 0 0 0 0 0 0 0 0 0 0 0 0 0 0 0 0 0 0 0 0 0 0 0 0 0
0 0 0 0 0 0 0 0 0 0 0 0 0 0 0 0 0 0 0 0 0 0 0 0 0 0 0 0 0 0 0 0 0 0 0 0 0 0 0 0 0 0 0 0
0 0 0 0 0 0 0 0 0 0 0 0 0 0 0 0 0 0 0 0 0 0 0 0 0 0 0 0 0 0 0 0 0 0 0 0 0 0 0 0 0 0 0 0
0 0 0 0 0 0 0 0 0 0 0 0 0 0 0 0 0 0 0 0 0 0 0 0 0 0 0 0 0 0 0 0 0 0 0 0 0 0 0 0 0 0 0 0
0 0 0 0 0 0 0 0 0 0 0 0 0 0 0 0 0 0 0 0 0 0 0 0 0 0 0 0 0 0 0 0 0 0 0 0 0 0 0 0 0 0 0 0
0 0 0 0 0 0 0 0 0 0 0 0 0 0 0 0 0 0 0 0 0 0 0 0 0 0 0 0 0 0 0 0 0 0 0 0 0 0 0 0 0 0 0 0
0 0 0 0 0 0 0 0 0 0 0 0 0 0 0 0 0 0 0 0 0 0 0 0 0 0 0 0 0 0 0 0 0 0 0 0 0 0 0 0 0 0 0 0
0 0 0 0 0 0 0 0 0 0 0 0 0 0 0 0 0 0 0 0 0 0 0 0 0 0 0 0 0 0 0 0 0 0 0 0 0 0 0 0 0 0 0 0
0 0 0 0 0 0 0 0 0 0 0 0 0 0 0 0 0 0 0 0 0 0 0 0 0 0 0 0 0 0 0 0 0 0 0 0 0 0 0 0 0 0 0 0
0 0 0 0 0 0 0 0 0 0 0 0 0 0 0 0 0 0 0 0 0 0 0 0 0 0 0 0 0 0 0 0 0 0 0 0 0 0 0 0 0 0 0 0
0 0 0 0 0 0 0 0 0 0 0 0 0 0 0 0 0 0 0 0 0 0 0 0 0 0 0 0 0 0 0 0 0 0 0 0 0 0 0 0 0 0 0 0
0 0 0 0 0 0 0 0 0 0 0 0 0 0 0 0 0 0 0 0 0 0 0 0 0 0 0 0 0 0 0 0 0 0 0 0 0 0 0 0 0 -9 0 0
0 0 0 0 0 0 0 0 0 0 0 0 0 0 0 0 0 0 0 0 0 0 0 0 0 0 0 0 0 0 0 0 0 0 0 0 -11 0 0 0 0 0 0 0
0 0 0 0 0 0 0 0 0 0 0 0 0 0 0 0 0 0 0 0 0 0 0 0 0 0 0 0 0 0 0 0 0 0 0 0 0 0 0 0 0 0 0 0
0 0 0 0 0 0 0 0 0 0 0 0 0 0 0 0 0 0 0 0 0 0 0 0 0 0 0 0 0 0 0 0 0 0 0 0 0 0 0 0 0 0 0 0
0 0 0 0 0 0 0 0 0 0 0 0 0 0 0 0 0 0 0 0 0 0 0 0 0 0 0 0 0 0 0 0 0 0 0 0 0 0 0 0 0 0 0 0
0 0 0 0 0 0 0 0 0 0 0 0 0 0 0 0 0 0 0 0 0 0 0 0 0 0 0 0 0 0 0 0 0 0 0 0 0 0 0 0 0 0 0 0
0 0 0 0 0 0 0 0 0 0 0 0 0 0 0 -13 -5 -1 0 0 0 0 0 0 0 0 0 0 0 0 0 0 0 0 0 0 0 0 0 0 0 0 0 0
0 0 0 0 0 0 0 0 0 -2 -2 0 0 -6 0 -2 -5 0 0 0 0 0 0 0 0 0 0 0 0 0 0 0 0 0 0 0 0 0 0 0 0 0 0 0
0 0 0 0 0 0 0 0 -9 -7 0 0 0 0 0 0 -1 0 0 0 0 0 0 0 0 0 0 0 0 0 0 0 0 0 0 0 0 0 0 0 0 0 0 0
0 0 0 0 0 0 0 0 0 0 0 0 -2 0 0 0 0 0 0 0 0 0 0 0 0 0 0 0 0 0 0 0 0 0 0 0 0 0 0 0 0 0 0 0
0 0 0 0 0 0 0 0 0 0 0 0 -1 -2 0 0 0 0 0 0 0 0 0 0 0 0 0 0 0 0 0 0 0 0 0 0 0 0 0 0 0 0 -1 0
0 0 0 0 0 0 0 -10 0 0 0 -1 0 0 0 0 0 0 0 0 0 0 0 0 0 0 0 0 0 0 0 0 0 0 0 0 0 0 0 0 0 0 0 0
0 0 -1 0 -12 -7 -4 -3 -4 -1 0 0 0 0 0 0 0 0 0 0 0 0 0 0 0 0 0 0 0 0 0 0 0 0 0 0 0 0 0 0 0 0 0 0
Wind_Speed
14 13 13 15 15 14 16 19 20 21 16 23 20 22 22 23 19 16 16 14 11 9 11 13 14 13 12 12 10 8 9 14 17 20 22 23 24 26 27 27 28 28 28 29
13 14 15 15 16 17 19 19 20 18 19 20 21 19 18 21 19 18 16 15 13 12 13 14 15 15 15 15 14 16 18 20 21 22 24 25 27 27 29 31 33 34 35 35
13 15 16 16 18 20 21 20 22 23 25 18 20 16 19 18 19 18 17 16 14 14 14 14 16 18 20 20 21 21 21 23 25 25 26 27 26 28 31 36 39 40 40 39
15 16 16 18 20 22 22 21 26 26 21 18 20 15 20 19 17 18 16 15 16 17 18 20 20 22 22 22 22 22 21 24 27 27 28 30 32 35 36 39 40 42 42 43
16 17 19 21 21 22 23 27 24 20 16 16 20 18 18 19 18 18 19 18 19 20 21 22 21 21 22 22 23 23 24 27 28 29 30 32 34 35 38 42 45 44 44 43
16 18 19 21 23 22 26 22 19 18 16 18 18 19 20 20 21 20 19 23 23 23 23 21 21 20 22 24 25 26 27 28 30 32 33 35 37 41 44 47 48 49 47 45
19 19 20 22 23 20 25 22 20 19 19 20 19 21 19 19 21 21 22 24 26 26 24 22 22 22 25 27 28 29 31 33 35 36 37 39 41 42 45 48 48 49 48 45
19 19 21 21 21 21 22 21 20 22 22 23 22 19 16 16 22 24 24 25 26 25 24 23 22 22 25 27 29 32 35 36 38 40 40 39 39 42 45 45 45 45 45 40
18 16 19 21 20 19 20 20 18 20 22 24 22 20 14 14 24 27 27 28 28 27 25 25 25 26 28 32 33 36 38 39 38 38 37 38 40 42 44 45 45 43 39 33
19 17 18 17 18 22 19 17 22 23 26 27 23 24 22 19 24 28 29 28 28 27 28 30 32 33 33 33 35 37 36 37 37 38 37 39 42 44 45 47 46 41 33 28
20 18 18 18 22 19 19 20 20 20 22 25 29 23 21 20 24 28 30 26 28 28 30 32 32 34 33 31 35 37 37 37 38 38 39 42 44 45 46 44 41 34 29 28
21 18 20 19 17 18 18 19 21 24 24 25 26 29 20 18 25 32 31 26 28 29 32 32 33 35 35 35 40 41 39 39 39 38 41 42 43 44 43 39 35 31 30 28
19 20 22 20 19 19 19 20 22 22 22 21 27 28 22 22 33 34 32 30 32 33 35 37 37 38 39 41 42 41 41 40 39 41 42 42 41 41 39 35 33 32 30 29
18 19 19 19 21 22 24 23 21 21 25 26 23 26 29 31 34 34 30 31 34 37 36 39 38 40 41 40 41 41 40 40 41 40 39 39 38 36 34 34 34 33 32 31
19 20 19 18 19 22 22 22 20 19 18 24 28 29 30 33 33 28 33 37 38 39 39 38 39 41 41 40 41 40 41 41 40 39 37 38 37 35 36 36 34 33 31 30
22 23 24 25 26 25 27 27 22 14 19 21 21 26 30 29 25 32 39 40 39 39 37 38 41 41 38 41 42 44 43 41 36 37 37 36 36 35 34 34 34 32 33 31
22 23 27 28 27 31 31 20 19 26 24 24 31 34 32 33 34 39 42 39 39 38 39 40 39 38 41 42 44 45 42 38 36 36 34 35 36 35 35 34 33 33 33 31
22 24 25 28 31 31 22 22 25 25 23 25 29 32 29 35 39 38 38 36 37 39 39 37 37 39 40 42 43 40 37 37 37 35 36 36 34 34 34 34 33 32 31 31
20 21 27 29 27 29 29 22 23 26 29 27 29 31 37 44 47 40 34 35 37 37 35 36 37 36 41 43 40 37 38 37 35 35 35 33 32 33 34 33 32 32 32 32
23 21 24 27 30 31 25 24 25 24 35 24 30 42 48 44 49 46 34 35 35 35 36 38 36 38 41 41 39 39 39 37 34 33 32 31 31 32 32 32 32 31 31 32
27 26 26 25 28 27 23 22 22 35 38 30 36 40 40 40 38 37 36 34 35 35 38 38 36 40 40 39 40 40 36 34 30 29 28 29 29 29 30 30 30 31 32 31
27 29 27 24 25 30 21 24 33 33 39 36 37 38 37 34 36 34 33 35 37 40 41 37 38 40 39 38 38 37 35 30 26 26 26 26 27 29 29 29 30 31 32 32
25 18 24 20 21 25 27 30 32 36 34 35 36 33 34 35 33 34 37 38 38 40 41 37 39 40 38 36 34 34 31 28 25 24 24 25 27 27 28 30 32 32 32 32
23 18 22 26 23 28 31 33 31 29 35 31 29 31 31 34 36 38 39 40 40 42 43 41 41 40 39 35 33 31 29 26 23 22 22 24 26 28 29 30 30 30 32 32
23 23 24 27 30 31 31 30 31 30 30 28 28 32 35 36 39 39 40 40 42 43 44 43 42 40 38 36 34 31 28 24 21 21 22 23 25 27 29 29 30 29 29 30
20 23 26 33 32 37 37 31 29 27 30 32 34 37 36 37 39 40 42 41 42 44 45 44 42 39 37 35 33 31 29 25 22 21 21 22 24 27 28 29 30 27 27 29
Wind_Direction
310 327 313 307 311 309 296 287 270 281 340 311 332 324 336 341 355 357 2 11 20 28 14 10 10 15 22 17 11 9 2 352 348 346 344 343 343 344 345 345 345 343 340 337
331 313 317 328 315 312 309 313 318 316 335 339 331 338 346 350 359 4 8 12 21 31 27 23 23 19 18 12 9 358 348 345 344 341 340 339 336 338 339 339 338 337 335 332
340 327 343 312 313 309 309 322 317 304 296 338 333 350 340 351 2 7 11 22 32 32 25 19 8 5 360 355 349 346 344 343 343 342 341 340 341 339 337 334 332 332 331 331
331 327 331 328 322 317 315 323 298 295 314 329 332 345 344 352 360 1 11 14 7 359 356 350 348 347 345 347 348 349 349 347 344 345 342 340 337 334 333 331 331 329 328 327
336 331 320 323 325 329 317 316 321 327 332 333 330 337 346 359 355 350 349 355 353 351 347 344 347 349 352 353 353 351 348 345 344 342 340 338 336 334 332 331 329 328 328 327
342 339 338 326 326 331 326 332 336 338 336 327 336 339 342 345 349 354 0 352 350 347 344 347 350 352 351 350 348 345 343 342 342 340 338 336 333 330 328 328 327 327 327 326
336 336 336 339 327 332 328 328 323 326 326 325 339 335 342 358 355 355 352 349 346 346 347 349 348 346 344 343 343 342 339 337 336 335 334 332 330 329 328 327 327 325 325 325
352 341 342 339 340 332 336 334 328 319 322 324 333 332 344 6 2 358 356 353 351 352 354 354 355 351 347 345 343 340 338 336 335 333 331 331 332 331 329 329 328 328 326 326
20 24 359 352 349 346 345 336 348 332 329 324 332 340 347 339 342 348 349 348 347 348 351 350 349 345 342 341 340 339 336 335 336 336 335 333 332 331 329 329 329 328 328 328
23 19 11 12 7 355 354 2 330 333 322 323 331 332 333 338 334 343 343 345 344 344 343 341 340 338 338 337 338 336 335 334 334 334 333 333 332 332 331 330 329 330 330 332
16 13 6 3 345 353 348 348 348 346 338 329 325 336 339 338 340 339 341 345 345 344 342 340 340 340 338 337 337 336 335 333 333 334 334 333 332 332 332 332 333 337 338 336
12 9 0 357 5 359 354 345 341 336 333 332 327 330 345 343 342 336 338 344 343 342 342 342 341 340 340 339 337 336 336 336 335 335 333 334 334 335 336 338 340 341 339 341
24 11 359 359 354 350 345 341 339 338 337 330 327 329 345 338 331 336 337 339 340 339 338 340 340 340 339 338 337 338 338 337 337 336 335 336 337 338 340 343 342 342 342 341
25 13 3 352 343 340 331 331 332 331 327 326 321 322 329 331 331 334 341 340 337 337 337 338 339 339 338 339 339 339 340 339 338 337 337 338 340 343 344 342 339 339 339 338
15 2 356 348 342 338 334 327 327 323 323 324 327 327 330 331 333 338 338 336 335 335 336 337 338 338 339 340 340 341 340 339 339 339 339 338 339 340 340 340 342 342 342 339
3 356 354 347 342 340 335 328 325 333 331 327 327 327 334 338 341 335 334 335 336 336 337 337 338 340 340 340 340 339 339 340 342 342 342 343 343 342 342 342 342 343 341 341
358 353 348 344 345 339 334 345 343 334 332 332 330 332 337 335 334 333 334 335 336 338 338 338 340 340 339 341 340 340 341 343 344 344 345 344 343 344 345 345 345 344 343 344
353 350 349 341 341 337 350 341 330 328 333 332 332 334 339 335 334 334 337 337 338 338 337 338 339 341 342 342 342 343 344 343 343 344 344 344 346 347 347 346 345 345 346 345
355 351 343 338 339 338 343 352 347 338 333 335 336 338 335 333 331 331 336 339 338 337 339 339 341 342 342 342 344 343 342 343 342 343 345 347 348 347 347 347 348 347 346 345
354 351 341 336 333 335 347 350 350 347 330 348 341 332 331 333 330 332 340 341 340 340 339 340 341 341 342 343 343 342 340 341 342 344 347 349 350 350 350 350 349 349 348 346
341 341 334 333 331 335 342 353 359 336 333 338 335 333 333 334 334 336 338 339 339 339 339 338 338 338 341 343 343 342 343 343 344 346 349 350 353 354 354 353 353 351 349 347
338 334 332 338 336 338 357 346 336 336 331 332 334 334 334 339 339 341 340 338 338 337 338 338 337 339 341 342 343 344 345 348 350 350 351 353 354 355 356 355 354 353 351 349
336 335 332 330 329 333 335 329 331 333 334 336 336 341 340 338 337 337 336 336 336 337 338 338 337 337 339 342 343 342 344 348 348 349 351 353 354 356 357 355 354 353 353 351
336 333 323 324 328 326 328 329 333 338 337 339 340 338 341 337 335 333 334 335 335 337 337 337 336 335 336 340 342 341 343 345 347 348 350 353 355 356 356 356 356 355 354 353
327 331 325 320 324 328 333 334 334 337 341 342 341 338 337 335 334 334 334 334 335 335 336 337 336 335 336 339 339 341 342 346 345 347 350 353 356 357 357 359 359 359 359 359
326 325 322 322 328 328 333 338 341 342 342 340 337 337 338 337 335 335 334 334 335 335 336 336 336 336 337 339 341 344 346 348 349 349 352 356 357 358 0 1 2 7 8 6